Location: Tamazert
(32.6352°N, 5.2072°W)
Time: 08:21:19
(UTC+00:00)

Cosmos 1066 - Visible Passes

Search period start: 06 October 2022 00:00
Search period end: 16 October 2022 00:00
Orbit: 818 x 889 km, 81.2° (Epoch: 05 October)

Date Brightness Start Highest point End Pass type
(mag) Time Alt. Az. Time Alt. Az. Time Alt. Az.
06 Oct 6.1 18:36:19 10° NNE 18:40:22 19° ENE 18:44:24 10° ESE visible
06 Oct 5.7 20:18:00 10° NNW 20:23:32 47° W 20:27:02 22° SSW visible
07 Oct 6.1 18:25:21 10° NNE 18:29:11 18° ENE 18:33:00 10° ESE visible
07 Oct 5.6 20:06:48 10° NNW 20:12:24 50° W 20:18:00 10° SSW visible
08 Oct 5.4 19:55:37 10° NNW 20:01:17 54° W 20:06:55 10° S visible
09 Oct 5.3 19:44:26 10° NNW 19:50:09 59° W 19:55:50 10° S visible
10 Oct 5.2 19:33:15 10° NNW 19:39:01 63° W 19:44:44 10° S visible
11 Oct 5.1 19:22:05 10° NNW 19:27:53 68° W 19:33:38 10° S visible
12 Oct 5.0 19:10:55 10° NNW 19:16:45 73° W 19:22:30 10° S visible
13 Oct 4.9 18:59:46 10° N 19:05:37 79° W 19:11:23 10° S visible
14 Oct 4.9 18:48:37 10° N 18:54:28 84° W 19:00:15 10° S visible
15 Oct 4.8 18:37:28 10° N 18:43:20 90° W 18:49:06 10° S visible
